Time,TemperatureF,DewpointF,PressureIn,WindDirection,WindDirectionDegrees,WindSpeedMPH,WindSpeedGustMPH,Humidity,HourlyPrecipIn,Conditions,Clouds,dailyrainin,SoftwareType,DateUTC
2013-01-17 00:00:00,30.5,30.5,29.81,NNE,23,0.0,0.0,100,0.00,,,-99.99,Weather View 32 v60,2013-01-17 05:00:00,
2013-01-17 00:05:00,30.5,30.5,29.81,NNE,23,0.0,0.0,100,0.00,,,-99.99,Weather View 32 v60,2013-01-17 05:05:00,
2013-01-17 00:10:00,30.4,30.4,29.81,NNE,23,0.0,0.0,100,0.00,,,-99.99,Weather View 32 v60,2013-01-17 05:10:00,
2013-01-17 00:15:00,30.3,30.3,29.81,NNE,23,0.0,0.0,100,0.00,,,-99.99,Weather View 32 v60,2013-01-17 05:15:00,
2013-01-17 00:20:00,30.3,30.3,29.82,NNE,23,0.0,0.0,100,0.00,,,-99.99,Weather View 32 v60,2013-01-17 05:20:00,
2013-01-17 00:25:00,30.3,30.3,29.82,NNE,23,0.0,0.0,100,0.00,,,-99.99,Weather View 32 v60,2013-01-17 05:25:00,
2013-01-17 00:30:00,30.3,30.3,29.82,NNE,23,0.0,0.0,100,0.00,,,-99.99,Weather View 32 v60,2013-01-17 05:30:00,
2013-01-17 00:35:00,30.2,30.2,29.82,NNE,23,0.0,0.0,100,0.00,,,-99.99,Weather View 32 v60,2013-01-17 05:35:00,
2013-01-17 00:40:00,30.1,30.1,29.82,NNE,23,0.0,0.0,100,0.00,,,-99.99,Weather View 32 v60,2013-01-17 05:40:00,
2013-01-17 00:45:00,30.0,30.0,29.82,NNE,23,0.0,0.0,100,0.00,,,-99.99,Weather View 32 v60,2013-01-17 05:45:00,
2013-01-17 00:50:00,30.0,30.0,29.82,NNE,23,0.0,0.0,100,0.00,,,-99.99,Weather View 32 v60,2013-01-17 05:50:00,
2013-01-17 00:55:00,29.9,29.9,29.82,NNE,23,0.0,0.0,100,0.00,,,-99.99,Weather View 32 v60,2013-01-17 05:55:00,
2013-01-17 01:00:00,29.9,29.9,29.82,NNE,23,0.0,0.0,100,0.00,,,-99.99,Weather View 32 v60,2013-01-17 06:00:00,
2013-01-17 01:05:00,29.8,29.8,29.82,NNE,23,0.0,0.0,100,0.00,,,-99.99,Weather View 32 v60,2013-01-17 06:05:00,
2013-01-17 01:10:00,29.8,29.8,29.82,NNE,23,0.0,0.0,100,0.01,,,-99.99,Weather View 32 v60,2013-01-17 06:10:00,
2013-01-17 01:15:00,29.7,29.7,29.82,NNE,23,0.0,0.0,100,0.01,,,-99.99,Weather View 32 v60,2013-01-17 06:15:00,
2013-01-17 01:20:00,29.6,29.6,29.83,NNE,23,0.0,0.0,100,0.01,,,-99.99,Weather View 32 v60,2013-01-17 06:20:00,
2013-01-17 01:25:00,29.6,29.6,29.83,NNE,23,0.0,0.0,100,0.01,,,-99.99,Weather View 32 v60,2013-01-17 06:25:00,
2013-01-17 01:30:00,29.5,29.5,29.83,NNE,23,0.0,0.0,100,0.01,,,-99.99,Weather View 32 v60,2013-01-17 06:30:00,
2013-01-17 01:35:00,29.5,29.5,29.83,NNE,23,0.0,0.0,100,0.01,,,-99.99,Weather View 32 v60,2013-01-17 06:35:00,
2013-01-17 01:40:00,29.4,29.4,29.83,NNE,23,0.0,0.0,100,0.01,,,-99.99,Weather View 32 v60,2013-01-17 06:40:00,
2013-01-17 01:45:00,29.4,29.4,29.83,NNE,23,0.0,0.0,100,0.01,,,-99.99,Weather View 32 v60,2013-01-17 06:45:00,
2013-01-17 01:50:00,29.4,29.4,29.82,NNE,23,0.0,0.0,100,0.01,,,-99.99,Weather View 32 v60,2013-01-17 06:50:00,
2013-01-17 01:55:00,29.4,29.4,29.83,NNE,23,0.0,0.0,100,0.01,,,-99.99,Weather View 32 v60,2013-01-17 06:55:00,
2013-01-17 02:00:00,29.3,29.3,29.82,NNE,23,0.0,0.0,100,0.01,,,-99.99,Weather View 32 v60,2013-01-17 07:00:00,
2013-01-17 02:05:00,29.3,29.3,29.82,NNE,23,0.0,0.0,100,0.01,,,-99.99,Weather View 32 v60,2013-01-17 07:05:00,
2013-01-17 02:10:00,29.2,29.2,29.82,NNE,23,0.0,0.0,100,0.00,,,-99.99,Weather View 32 v60,2013-01-17 07:10:00,
2013-01-17 02:15:00,29.2,29.2,29.82,NNE,23,0.0,0.0,100,0.00,,,-99.99,Weather View 32 v60,2013-01-17 07:15:00,
2013-01-17 02:20:00,29.2,29.2,29.81,NNE,23,0.0,0.0,100,0.00,,,-99.99,Weather View 32 v60,2013-01-17 07:20:00,
2013-01-17 02:25:00,29.2,29.2,29.81,NNE,23,0.0,0.0,100,0.00,,,-99.99,Weather View 32 v60,2013-01-17 07:25:00,
2013-01-17 02:30:00,29.2,29.2,29.81,NNE,23,0.0,0.0,100,0.00,,,-99.99,Weather View 32 v60,2013-01-17 07:30:00,
2013-01-17 02:35:00,29.2,29.2,29.82,NNE,23,0.0,0.0,100,0.00,,,-99.99,Weather View 32 v60,2013-01-17 07:35:00,
2013-01-17 02:40:00,29.2,29.2,29.82,NNE,23,0.0,0.0,100,0.00,,,-99.99,Weather View 32 v60,2013-01-17 07:40:00,
2013-01-17 02:45:00,29.2,29.2,29.82,NNE,23,0.0,0.0,100,0.00,,,-99.99,Weather View 32 v60,2013-01-17 07:45:00,
2013-01-17 02:50:00,29.2,29.2,29.82,NNE,23,0.0,0.0,100,0.00,,,-99.99,Weather View 32 v60,2013-01-17 07:50:00,
2013-01-17 02:55:00,29.2,29.2,29.82,NNE,23,0.0,0.0,100,0.00,,,-99.99,Weather View 32 v60,2013-01-17 07:55:00,
2013-01-17 03:05:00,29.1,29.1,29.82,NNE,23,0.0,0.0,100,0.00,,,-99.99,Weather View 32 v60,2013-01-17 08:05:00,
2013-01-17 03:10:00,29.1,29.1,29.81,NNE,23,0.0,0.0,100,0.00,,,-99.99,Weather View 32 v60,2013-01-17 08:10:00,
2013-01-17 03:20:00,29.0,29.0,29.81,NNE,23,0.0,0.0,100,0.00,,,-99.99,Weather View 32 v60,2013-01-17 08:20:00,
2013-01-17 03:25:00,28.9,28.9,29.81,NNE,23,0.0,0.0,100,0.00,,,-99.99,Weather View 32 v60,2013-01-17 08:25:00,
2013-01-17 03:35:00,28.8,28.8,29.80,NNE,23,0.0,0.0,100,0.00,,,-99.99,Weather View 32 v60,2013-01-17 08:35:00,
2013-01-17 03:50:00,28.7,28.7,29.80,NNE,23,0.0,0.0,100,0.00,,,-99.99,Weather View 32 v60,2013-01-17 08:50:00,
2013-01-17 03:55:00,28.7,28.7,29.80,NNE,23,0.0,0.0,100,0.00,,,-99.99,Weather View 32 v60,2013-01-17 08:55:00,
2013-01-17 04:00:00,29.2,29.2,29.82,NNE,23,0.0,0.0,100,0.00,,,-99.99,Weather View 32 v60,2013-01-17 09:00:00,
2013-01-17 04:10:00,28.7,28.7,29.82,NNE,23,0.0,0.0,100,0.00,,,-99.99,Weather View 32 v60,2013-01-17 09:10:00,
2013-01-17 04:15:00,29.0,29.0,29.81,NNE,23,0.0,0.0,100,0.00,,,-99.99,Weather View 32 v60,2013-01-17 09:15:00,
2013-01-17 04:30:00,28.9,28.9,29.81,NNE,23,0.0,0.0,100,0.00,,,-99.99,Weather View 32 v60,2013-01-17 09:30:00,
2013-01-17 04:35:00,28.5,28.5,29.83,NNE,23,0.0,0.0,100,0.00,,,-99.99,Weather View 32 v60,2013-01-17 09:35:00,
2013-01-17 04:39:00,28.8,28.8,29.80,NNE,23,0.0,0.0,100,0.00,,,-99.99,Weather View 32 v60,2013-01-17 09:39:00,
2013-01-17 04:40:00,28.4,28.4,29.83,NNE,23,0.0,0.0,100,0.00,,,-99.99,Weather View 32 v60,2013-01-17 09:40:00,
2013-01-17 04:45:00,28.7,28.7,29.80,NNE,23,0.0,0.0,100,0.00,,,-99.99,Weather View 32 v60,2013-01-17 09:45:00,
2013-01-17 04:50:00,28.4,28.4,29.83,NNE,23,0.0,0.0,100,0.00,,,-99.99,Weather View 32 v60,2013-01-17 09:50:00,
2013-01-17 05:00:00,28.4,28.4,29.83,NNE,23,0.0,0.0,100,0.00,,,-99.99,Weather View 32 v60,2013-01-17 10:00:00,
2013-01-17 05:05:00,28.7,28.7,29.81,NNE,23,0.0,0.0,100,0.00,,,-99.99,Weather View 32 v60,2013-01-17 10:05:00,
2013-01-17 05:10:00,28.3,28.3,29.83,NNE,23,0.0,0.0,100,0.00,,,-99.99,Weather View 32 v60,2013-01-17 10:10:00,
2013-01-17 05:15:00,28.7,28.7,29.82,NNE,23,0.0,0.0,100,0.00,,,-99.99,Weather View 32 v60,2013-01-17 10:15:00,
2013-01-17 05:20:00,28.7,28.7,29.82,NNE,23,0.0,0.0,100,0.00,,,-99.99,Weather View 32 v60,2013-01-17 10:20:00,
2013-01-17 05:25:00,28.6,28.6,29.82,NNE,23,0.0,0.0,100,0.00,,,-99.99,Weather View 32 v60,2013-01-17 10:25:00,
2013-01-17 05:30:00,28.1,28.1,29.83,NNE,23,0.0,0.0,100,0.00,,,-99.99,Weather View 32 v60,2013-01-17 10:30:00,
2013-01-17 05:40:00,28.0,28.0,29.84,NNE,23,0.0,0.0,100,0.00,,,-99.99,Weather View 32 v60,2013-01-17 10:40:00,
2013-01-17 05:55:00,28.4,28.4,29.83,NNE,23,0.0,0.0,100,0.00,,,-99.99,Weather View 32 v60,2013-01-17 10:55:00,
2013-01-17 06:00:00,27.8,27.8,29.84,NNE,23,0.0,0.0,100,0.00,,,-99.99,Weather View 32 v60,2013-01-17 11:00:00,
2013-01-17 06:05:00,28.4,28.4,29.83,NNE,23,0.0,0.0,100,0.00,,,-99.99,Weather View 32 v60,2013-01-17 11:05:00,
2013-01-17 06:10:00,27.7,27.7,29.85,NNE,23,0.0,0.0,100,0.00,,,-99.99,Weather View 32 v60,2013-01-17 11:10:00,
2013-01-17 06:25:00,28.1,28.1,29.83,NNE,23,0.0,0.0,100,0.00,,,-99.99,Weather View 32 v60,2013-01-17 11:25:00,
2013-01-17 06:30:00,27.7,27.7,29.86,NNE,23,0.0,0.0,100,0.00,,,-99.99,Weather View 32 v60,2013-01-17 11:30:00,
2013-01-17 06:35:00,28.0,28.0,29.83,NNE,23,0.0,0.0,100,0.00,,,-99.99,Weather View 32 v60,2013-01-17 11:35:00,
2013-01-17 06:40:00,27.7,27.7,29.88,NNE,23,0.0,0.0,100,0.00,,,-99.99,Weather View 32 v60,2013-01-17 11:40:00,
2013-01-17 06:45:00,27.9,27.9,29.84,NNE,23,0.0,0.0,100,0.00,,,-99.99,Weather View 32 v60,2013-01-17 11:45:00,
2013-01-17 06:49:00,27.9,27.9,29.84,NNE,23,0.0,0.0,100,0.00,,,-99.99,Weather View 32 v60,2013-01-17 11:49:00,
2013-01-17 06:50:00,27.7,27.7,29.88,NNE,23,0.0,0.0,100,0.00,,,-99.99,Weather View 32 v60,2013-01-17 11:50:00,
2013-01-17 06:55:00,27.9,27.9,29.84,NNE,23,0.0,0.0,100,0.00,,,-99.99,Weather View 32 v60,2013-01-17 11:55:00,
2013-01-17 07:15:00,27.7,27.7,29.86,NNE,23,0.0,0.0,100,0.00,,,-99.99,Weather View 32 v60,2013-01-17 12:15:00,
2013-01-17 07:25:00,27.6,27.6,29.86,NNE,23,0.0,0.0,100,0.00,,,-99.99,Weather View 32 v60,2013-01-17 12:25:00,
2013-01-17 07:45:00,27.7,27.7,29.88,NNE,23,0.0,0.0,100,0.00,,,-99.99,Weather View 32 v60,2013-01-17 12:45:00,
2013-01-17 07:50:00,29.2,29.2,29.90,NNE,23,0.0,0.0,100,0.00,,,-99.99,Weather View 32 v60,2013-01-17 12:50:00,
2013-01-17 08:00:00,27.8,27.8,29.89,NNE,23,0.0,0.0,100,0.00,,,-99.99,Weather View 32 v60,2013-01-17 13:00:00,
2013-01-17 08:05:00,30.5,30.5,29.90,WSW,248,0.0,0.0,100,0.00,,,-99.99,Weather View 32 v60,2013-01-17 13:05:00,
2013-01-17 08:10:00,27.9,27.9,29.89,NNE,23,0.0,0.0,100,0.00,,,-99.99,Weather View 32 v60,2013-01-17 13:10:00,
2013-01-17 08:15:00,27.9,27.9,29.89,NNE,23,0.0,0.0,100,0.00,,,-99.99,Weather View 32 v60,2013-01-17 13:15:00,
2013-01-17 08:25:00,28.1,28.1,29.89,NNE,23,0.0,0.0,100,0.00,,,-99.99,Weather View 32 v60,2013-01-17 13:25:00,
2013-01-17 08:35:00,28.4,28.4,29.90,NNE,23,0.0,0.0,100,0.00,,,-99.99,Weather View 32 v60,2013-01-17 13:35:00,
2013-01-17 08:45:00,28.9,28.9,29.90,NNE,23,0.0,0.0,100,0.00,,,-99.99,Weather View 32 v60,2013-01-17 13:45:00,
2013-01-17 08:55:00,29.6,29.6,29.90,NNE,23,0.0,0.0,100,0.00,,,-99.99,Weather View 32 v60,2013-01-17 13:55:00,
2013-01-17 09:00:00,30.0,30.0,29.90,WSW,248,0.0,0.0,100,0.00,,,-99.99,Weather View 32 v60,2013-01-17 14:00:00,
2013-01-17 09:09:00,30.9,30.9,29.90,WSW,248,0.0,0.0,100,0.00,,,-99.99,Weather View 32 v60,2013-01-17 14:09:00,
2013-01-17 09:15:00,31.4,31.4,29.91,WNW,293,0.0,0.0,100,0.00,,,-99.99,Weather View 32 v60,2013-01-17 14:15:00,
2013-01-17 09:25:00,32.0,32.0,29.91,WSW,248,0.0,0.0,100,0.00,,,-99.99,Weather View 32 v60,2013-01-17 14:25:00,
2013-01-17 09:34:00,32.5,32.5,29.91,SSW,203,0.0,0.0,100,0.00,,,-99.99,Weather View 32 v60,2013-01-17 14:34:00,
2013-01-17 09:40:00,32.9,32.9,29.91,SW,225,0.0,1.0,100,0.00,,,-99.99,Weather View 32 v60,2013-01-17 14:40:00,
2013-01-17 09:50:00,33.4,33.4,29.92,SSW,203,3.0,5.0,100,0.00,,,-99.99,Weather View 32 v60,2013-01-17 14:50:00,
2013-01-17 10:00:00,34.1,34.1,29.91,SW,225,0.0,5.0,100,0.00,,,-99.99,Weather View 32 v60,2013-01-17 15:00:00,
2013-01-17 10:10:00,35.0,35.0,29.91,SSW,203,2.0,5.0,100,0.00,,,-99.99,Weather View 32 v60,2013-01-17 15:10:00,
2013-01-17 10:20:00,35.7,35.7,29.92,SW,225,4.0,7.0,100,0.00,,,-99.99,Weather View 32 v60,2013-01-17 15:20:00,
2013-01-17 10:25:00,35.9,35.6,29.92,SSW,203,1.0,7.0,99,0.00,,,-99.99,Weather View 32 v60,2013-01-17 15:25:00,
2013-01-17 10:35:00,36.4,35.9,29.91,WSW,248,1.0,7.0,98,0.00,,,-99.99,Weather View 32 v60,2013-01-17 15:35:00,
2013-01-17 10:45:00,36.7,35.9,29.92,SW,225,1.0,7.0,97,0.00,,,-99.99,Weather View 32 v60,2013-01-17 15:45:00,
2013-01-17 10:55:00,36.7,35.9,29.91,SW,225,1.0,9.0,97,0.00,,,-99.99,Weather View 32 v60,2013-01-17 15:55:00,
2013-01-17 11:05:00,36.8,35.8,29.91,SSW,203,3.0,9.0,96,0.00,,,-99.99,Weather View 32 v60,2013-01-17 16:05:00,
2013-01-17 11:10:00,36.8,35.5,29.91,West,270,0.0,9.0,95,0.00,,,-99.99,Weather View 32 v60,2013-01-17 16:10:00,
2013-01-17 11:20:00,37.0,35.7,29.92,West,270,2.0,9.0,95,0.00,,,-99.99,Weather View 32 v60,2013-01-17 16:20:00,
2013-01-17 11:25:00,37.1,35.5,29.93,SW,225,3.0,9.0,94,0.02,,,-99.99,Weather View 32 v60,2013-01-17 16:25:00,
2013-01-17 11:30:00,37.2,35.6,29.92,SW,225,0.0,9.0,94,0.02,,,-99.99,Weather View 32 v60,2013-01-17 16:30:00,
2013-01-17 11:40:00,37.6,35.8,29.92,WNW,293,2.0,9.0,93,0.02,,,-99.99,Weather View 32 v60,2013-01-17 16:40:00,
2013-01-17 11:45:00,37.7,35.9,29.92,WNW,293,4.0,9.0,93,0.04,,,-99.99,Weather View 32 v60,2013-01-17 16:45:00,
2013-01-17 11:55:00,37.9,35.8,29.92,West,270,3.0,9.0,92,0.04,,,-99.99,Weather View 32 v60,2013-01-17 16:55:00,
2013-01-17 12:00:00,38.0,35.6,29.92,West,270,3.0,9.0,91,0.04,,,-99.99,Weather View 32 v60,2013-01-17 17:00:00,
2013-01-17 12:10:00,38.1,35.4,29.91,NNW,338,3.0,9.0,90,0.06,,,-99.99,Weather View 32 v60,2013-01-17 17:10:00,
2013-01-17 12:15:00,38.1,35.4,29.90,North,0,2.0,9.0,90,0.06,,,-99.99,Weather View 32 v60,2013-01-17 17:15:00,
2013-01-17 12:25:00,38.0,35.0,29.91,West,270,7.0,10.0,89,0.05,,,-99.99,Weather View 32 v60,2013-01-17 17:25:00,
2013-01-17 12:30:00,38.2,35.0,29.91,NNW,338,5.0,10.0,88,0.06,,,-99.99,Weather View 32 v60,2013-01-17 17:30:00,
2013-01-17 12:39:00,38.4,35.2,29.91,NNW,338,7.0,10.0,88,0.06,,,-99.99,Weather View 32 v60,2013-01-17 17:39:00,
2013-01-17 12:45:00,38.5,34.7,29.91,WSW,248,3.0,10.0,86,0.05,,,-99.99,Weather View 32 v60,2013-01-17 17:45:00,
2013-01-17 12:55:00,38.6,34.5,29.92,WNW,293,4.0,13.0,85,0.06,,,-99.99,Weather View 32 v60,2013-01-17 17:55:00,
2013-01-17 13:04:00,38.6,33.9,29.92,NNW,338,6.0,13.0,83,0.04,,,-99.99,Weather View 32 v60,2013-01-17 18:04:00,
2013-01-17 13:10:00,38.6,33.9,29.92,NNW,338,3.0,13.0,83,0.05,,,-99.99,Weather View 32 v60,2013-01-17 18:10:00,
2013-01-17 13:15:00,38.6,33.9,29.92,NW,315,5.0,13.0,83,0.05,,,-99.99,Weather View 32 v60,2013-01-17 18:15:00,
2013-01-17 13:25:00,38.6,33.6,29.92,WNW,293,3.0,13.0,82,0.05,,,-99.99,Weather View 32 v60,2013-01-17 18:25:00,
2013-01-17 13:30:00,38.6,33.3,29.93,NNW,338,4.0,13.0,81,0.04,,,-99.99,Weather View 32 v60,2013-01-17 18:30:00,
2013-01-17 13:40:00,38.7,33.4,29.93,South,180,1.0,13.0,81,0.05,,,-99.99,Weather View 32 v60,2013-01-17 18:40:00,
2013-01-17 13:45:00,38.7,33.1,29.93,WNW,293,4.0,13.0,80,0.04,,,-99.99,Weather View 32 v60,2013-01-17 18:45:00,
2013-01-17 13:55:00,38.5,32.9,29.93,NNW,338,4.0,12.0,80,0.04,,,-99.99,Weather View 32 v60,2013-01-17 18:55:00,
2013-01-17 14:04:00,38.5,32.5,29.94,NW,315,6.0,12.0,79,0.04,,,-99.99,Weather View 32 v60,2013-01-17 19:04:00,
2013-01-17 14:10:00,38.5,32.5,29.94,West,270,2.0,12.0,79,0.03,,,-99.99,Weather View 32 v60,2013-01-17 19:10:00,
2013-01-17 14:15:00,38.6,32.3,29.93,WSW,248,2.0,12.0,78,0.04,,,-99.99,Weather View 32 v60,2013-01-17 19:15:00,
2013-01-17 14:25:00,38.7,32.1,29.94,NW,315,4.0,12.0,77,0.03,,,-99.99,Weather View 32 v60,2013-01-17 19:25:00,
2013-01-17 14:30:00,38.8,32.2,29.94,NE,45,2.0,10.0,77,0.03,,,-99.99,Weather View 32 v60,2013-01-17 19:30:00,
2013-01-17 14:40:00,38.8,31.9,29.96,NNW,338,3.0,10.0,76,0.03,,,-99.99,Weather View 32 v60,2013-01-17 19:40:00,
2013-01-17 14:50:00,38.9,32.0,29.96,NNW,338,3.0,10.0,76,0.04,,,-99.99,Weather View 32 v60,2013-01-17 19:50:00,
2013-01-17 14:55:00,38.9,31.6,29.95,NW,315,4.0,10.0,75,0.03,,,-99.99,Weather View 32 v60,2013-01-17 19:55:00,
2013-01-17 15:05:00,38.9,31.3,29.95,NNW,338,3.0,10.0,74,0.03,,,-99.99,Weather View 32 v60,2013-01-17 20:05:00,
2013-01-17 15:10:00,38.8,31.2,29.96,NNW,338,4.0,10.0,74,0.04,,,-99.99,Weather View 32 v60,2013-01-17 20:10:00,
2013-01-17 15:15:00,38.8,30.9,29.96,NNW,338,7.0,12.0,73,0.03,,,-99.99,Weather View 32 v60,2013-01-17 20:15:00,
2013-01-17 15:25:00,38.7,30.8,29.95,WNW,293,4.0,12.0,73,0.03,,,-99.99,Weather View 32 v60,2013-01-17 20:25:00,
2013-01-17 15:30:00,38.6,30.7,29.96,NNE,23,6.0,12.0,73,0.03,,,-99.99,Weather View 32 v60,2013-01-17 20:30:00,
2013-01-17 15:39:00,38.2,31.0,29.97,NNW,338,5.0,12.0,75,0.03,,,-99.99,Weather View 32 v60,2013-01-17 20:39:00,
2013-01-17 15:45:00,37.9,30.7,29.97,NNW,338,4.0,12.0,75,0.03,,,-99.99,Weather View 32 v60,2013-01-17 20:45:00,
2013-01-17 15:55:00,37.3,30.4,29.97,WNW,293,7.0,12.0,76,0.02,,,-99.99,Weather View 32 v60,2013-01-17 20:55:00,
2013-01-17 16:04:00,36.9,30.4,29.97,WNW,293,3.0,12.0,77,0.03,,,-99.99,Weather View 32 v60,2013-01-17 21:04:00,
2013-01-17 16:10:00,36.6,30.1,29.97,WNW,293,3.0,12.0,77,0.02,,,-99.99,Weather View 32 v60,2013-01-17 21:10:00,
2013-01-17 16:15:00,36.5,30.0,29.97,NNW,338,3.0,12.0,77,0.02,,,-99.99,Weather View 32 v60,2013-01-17 21:15:00,
2013-01-17 16:25:00,36.0,29.8,29.98,NNW,338,3.0,12.0,78,0.02,,,-99.99,Weather View 32 v60,2013-01-17 21:25:00,
2013-01-17 16:30:00,35.9,29.7,29.98,North,0,3.0,11.0,78,0.02,,,-99.99,Weather View 32 v60,2013-01-17 21:30:00,
2013-01-17 16:39:00,35.6,29.4,29.98,ENE,68,2.0,9.0,78,0.01,,,-99.99,Weather View 32 v60,2013-01-17 21:39:00,
2013-01-17 16:45:00,35.5,29.3,29.98,North,0,3.0,9.0,78,0.01,,,-99.99,Weather View 32 v60,2013-01-17 21:45:00,
2013-01-17 16:55:00,35.2,29.3,29.99,North,0,2.0,9.0,79,0.01,,,-99.99,Weather View 32 v60,2013-01-17 21:55:00,
2013-01-17 17:04:00,34.9,29.0,29.99,North,0,4.0,9.0,79,0.00,,,-99.99,Weather View 32 v60,2013-01-17 22:04:00,
2013-01-17 17:10:00,34.7,28.9,29.99,North,0,2.0,9.0,79,0.00,,,-99.99,Weather View 32 v60,2013-01-17 22:10:00,
2013-01-17 17:15:00,34.6,28.8,30.00,NW,315,5.0,9.0,79,0.00,,,-99.99,Weather View 32 v60,2013-01-17 22:15:00,
2013-01-17 17:25:00,34.4,28.2,30.01,NW,315,4.0,11.0,78,0.01,,,-99.99,Weather View 32 v60,2013-01-17 22:25:00,
2013-01-17 17:30:00,34.4,27.9,30.01,West,270,6.0,11.0,77,0.01,,,-99.99,Weather View 32 v60,2013-01-17 22:30:00,
2013-01-17 17:35:00,34.3,27.5,30.02,North,0,6.0,12.0,76,0.01,,,-99.99,Weather View 32 v60,2013-01-17 22:35:00,
2013-01-17 17:45:00,34.0,26.9,30.02,NNE,23,2.0,12.0,75,0.01,,,-99.99,Weather View 32 v60,2013-01-17 22:45:00,
2013-01-17 17:55:00,33.8,26.4,30.02,North,0,4.0,12.0,74,0.01,,,-99.99,Weather View 32 v60,2013-01-17 22:55:00,
2013-01-17 18:04:00,33.6,26.2,30.01,North,0,3.0,12.0,74,0.01,,,-99.99,Weather View 32 v60,2013-01-17 23:04:00,
2013-01-17 18:10:00,33.5,25.8,30.02,NNW,338,4.0,12.0,73,0.01,,,-99.99,Weather View 32 v60,2013-01-17 23:10:00,
2013-01-17 18:15:00,33.4,25.7,30.03,NW,315,4.0,12.0,73,0.01,,,-99.99,Weather View 32 v60,2013-01-17 23:15:00,
2013-01-17 18:25:00,33.1,25.4,30.03,WNW,293,1.0,12.0,73,0.00,,,-99.99,Weather View 32 v60,2013-01-17 23:25:00,
2013-01-17 18:30:00,33.0,25.3,30.03,NE,45,2.0,12.0,73,0.00,,,-99.99,Weather View 32 v60,2013-01-17 23:30:00,
2013-01-17 18:40:00,32.8,25.1,30.05,NNW,338,3.0,10.0,73,0.00,,,-99.99,Weather View 32 v60,2013-01-17 23:40:00,
2013-01-17 18:49:00,32.7,25.0,30.05,North,0,2.0,10.0,73,0.00,,,-99.99,Weather View 32 v60,2013-01-17 23:49:00,
2013-01-17 18:55:00,32.6,24.9,30.05,NNW,338,4.0,10.0,73,0.00,,,-99.99,Weather View 32 v60,2013-01-17 23:55:00,
2013-01-17 19:00:00,32.5,24.8,30.05,NNW,338,4.0,10.0,73,0.00,,,-99.99,Weather View 32 v60,2013-01-18 00:00:00,
2013-01-17 19:10:00,32.2,24.2,30.03,NNW,338,3.0,8.0,72,0.00,,,-99.99,Weather View 32 v60,2013-01-18 00:10:00,
2013-01-17 19:15:00,32.0,23.7,30.03,NNW,338,6.0,8.0,71,0.00,,,-99.99,Weather View 32 v60,2013-01-18 00:15:00,
2013-01-17 19:25:00,31.8,23.5,30.05,WNW,293,3.0,10.0,71,0.00,,,-99.99,Weather View 32 v60,2013-01-18 00:25:00,
2013-01-17 19:34:00,31.7,23.4,30.06,NNW,338,3.0,10.0,71,0.00,,,-99.99,Weather View 32 v60,2013-01-18 00:34:00,
2013-01-17 19:40:00,31.5,23.2,30.05,NW,315,3.0,10.0,71,0.00,,,-99.99,Weather View 32 v60,2013-01-18 00:40:00,
2013-01-17 19:45:00,31.4,23.4,30.05,NNW,338,2.0,10.0,72,0.00,,,-99.99,Weather View 32 v60,2013-01-18 00:45:00,
2013-01-17 19:55:00,31.3,23.3,30.06,WNW,293,2.0,10.0,72,0.00,,,-99.99,Weather View 32 v60,2013-01-18 00:55:00,
2013-01-17 20:00:00,31.3,23.3,30.06,NNW,338,6.0,10.0,72,0.00,,,-99.99,Weather View 32 v60,2013-01-18 01:00:00,
2013-01-17 20:10:00,31.3,23.3,30.06,NNW,338,2.0,10.0,72,0.00,,,-99.99,Weather View 32 v60,2013-01-18 01:10:00,
2013-01-17 21:15:00,31.2,23.2,30.05,NNW,338,2.0,7.0,72,0.00,,,-99.99,Weather View 32 v60,2013-01-18 02:15:00,
2013-01-17 21:25:00,29.7,21.1,30.06,NNW,338,7.0,10.0,70,0.00,,,-99.99,Weather View 32 v60,2013-01-18 02:25:00,
2013-01-17 21:30:00,29.7,20.8,30.06,WNW,293,4.0,10.0,69,0.00,,,-99.99,Weather View 32 v60,2013-01-18 02:30:00,
2013-01-17 21:39:00,29.6,20.7,30.05,North,0,2.0,14.0,69,0.00,,,-99.99,Weather View 32 v60,2013-01-18 02:39:00,
2013-01-17 21:45:00,29.5,20.6,30.04,NNW,338,1.0,14.0,69,0.00,,,-99.99,Weather View 32 v60,2013-01-18 02:45:00,
2013-01-17 21:55:00,29.4,20.5,30.03,NNW,338,3.0,14.0,69,0.00,,,-99.99,Weather View 32 v60,2013-01-18 02:55:00,
2013-01-17 22:00:00,29.3,20.0,30.02,WNW,293,4.0,14.0,68,0.00,,,-99.99,Weather View 32 v60,2013-01-18 03:00:00,
2013-01-17 22:10:00,29.2,20.3,30.01,NNW,338,3.0,14.0,69,0.00,,,-99.99,Weather View 32 v60,2013-01-18 03:10:00,
2013-01-17 22:15:00,29.2,20.3,30.01,NNW,338,4.0,14.0,69,0.00,,,-99.99,Weather View 32 v60,2013-01-18 03:15:00,
2013-01-17 22:25:00,29.1,19.5,30.01,WNW,293,3.0,14.0,67,0.00,,,-99.99,Weather View 32 v60,2013-01-18 03:25:00,
2013-01-17 22:30:00,29.0,19.4,30.02,North,0,3.0,14.0,67,0.00,,,-99.99,Weather View 32 v60,2013-01-18 03:30:00,
2013-01-17 22:35:00,28.9,19.7,30.02,NNW,338,4.0,14.0,68,0.00,,,-99.99,Weather View 32 v60,2013-01-18 03:35:00,
2013-01-17 22:45:00,28.8,19.2,30.03,WNW,293,7.0,11.0,67,0.00,,,-99.99,Weather View 32 v60,2013-01-18 03:45:00,
2013-01-17 22:55:00,28.6,18.7,30.03,WNW,293,6.0,11.0,66,0.00,,,-99.99,Weather View 32 v60,2013-01-18 03:55:00,
2013-01-17 23:00:00,28.5,17.9,30.02,WSW,248,3.0,16.0,64,0.00,,,-99.99,Weather View 32 v60,2013-01-18 04:00:00,
2013-01-17 23:05:00,28.4,17.8,30.02,North,0,3.0,16.0,64,0.00,,,-99.99,Weather View 32 v60,2013-01-18 04:05:00,
2013-01-17 23:10:00,27.4,15.7,30.02,WNW,293,6.0,17.0,61,0.00,,,-99.99,Weather View 32 v60,2013-01-18 04:10:00,
2013-01-17 23:14:00,28.3,17.3,30.01,NNW,338,5.0,16.0,63,0.00,,,-99.99,Weather View 32 v60,2013-01-18 04:14:00,
2013-01-17 23:15:00,27.3,15.6,30.03,NNW,338,2.0,11.0,61,0.00,,,-99.99,Weather View 32 v60,2013-01-18 04:15:00,
2013-01-17 23:20:00,28.1,16.8,29.99,NNW,338,4.0,17.0,62,0.00,,,-99.99,Weather View 32 v60,2013-01-18 04:20:00,
2013-01-17 23:25:00,28.0,16.7,29.98,North,0,4.0,17.0,62,0.00,,,-99.99,Weather View 32 v60,2013-01-18 04:25:00,
2013-01-17 23:30:00,27.2,15.9,30.02,WNW,293,1.0,11.0,62,0.00,,,-99.99,Weather View 32 v60,2013-01-18 04:30:00,
2013-01-17 23:34:00,27.8,16.5,29.98,WNW,293,6.0,17.0,62,0.00,,,-99.99,Weather View 32 v60,2013-01-18 04:34:00,
2013-01-17 23:35:00,27.2,15.9,30.03,North,0,3.0,10.0,62,0.00,,,-99.99,Weather View 32 v60,2013-01-18 04:35:00,
2013-01-17 23:40:00,27.7,16.0,29.98,NW,315,5.0,17.0,61,0.00,,,-99.99,Weather View 32 v60,2013-01-18 04:40:00,
2013-01-17 23:45:00,27.6,15.9,29.98,North,0,4.0,17.0,61,0.00,,,-99.99,Weather View 32 v60,2013-01-18 04:45:00,
2013-01-17 23:50:00,27.1,15.8,30.04,WNW,293,4.0,9.0,62,0.00,,,-99.99,Weather View 32 v60,2013-01-18 04:50:00,
2013-01-17 23:55:00,27.5,16.2,30.00,NNW,338,3.0,17.0,62,0.00,,,-99.99,Weather View 32 v60,2013-01-18 04:55:00,